Flag for Canada Weather past 2 weeks in Chibougamau, Quebec, Canada

Now
75 °F

Partly sunny.


Feels Like: 78 °F
Forecast: 57 / 80 °F
Wind: 17 mph from Southwest

Location: Chibougamau-Chapais

Current Time: Jul 6, 2015 at 12:08:57 PM

Latest Report: Jul 6, 2015 at 11:00 AM


Visibility: 15 mi

Pressure: 30.00 "Hg

Humidity: 54%

Dew point: 57 °F

Location of ChibougamauLocation

Historic Weather in Chibougamau — Graph

°F

Chibougamau temperature yesterday

Maximum temperature yesterday: 79 °F (at 2:00 PM)
Minimum temperature yesterday: 55 °F (at 6:00 AM)
Average temperature yesterday: 70 °F

Past Weeks' High & Low Weather Summary

 TemperatureHumidityPressure
High79 °F (Jun 28, 5:00 PM)100% (Jun 22, 6:00 AM)30.13 "Hg (Jun 22, 6:00 AM)
Low41 °F (Jun 25, 6:00 AM)28% (Jun 28, 5:00 PM)29.35 "Hg (Jun 23, 4:00 PM)
Average63 °F66%29.85 "Hg
* Reported Jun 21 11:00 AM — Jul 6 11:00 AM, Chibougamau, Weather by CustomWeather, © 2015

Note: Actual official high and low records may vary slightly from our data, if they occured in-between our weather recording intervals... More about our weather records

Advertising

Chibougamau weather history for previous 24 hours

 ConditionsComfort  
Time TempWeatherWind HumidityBarometerVisibility
11:00 AM
Mon, Jul 6
75 °FPartly sunny.17 mph54%30.00 "Hg15 mi
10:00 AM72 °FPartly sunny.14 mph65%30.02 "Hg15 mi
9:00 AM70 °FPartly sunny.13 mph64%30.03 "Hg15 mi
8:00 AM64 °FPartly sunny.10 mph78%30.05 "Hg15 mi
7:00 AM63 °FPartly sunny.8 mph77%30.05 "Hg15 mi
6:00 AM57 °FPassing clouds.6 mph88%30.04 "Hg15 mi
3:00 AM55 °FClear.7 mph88%30.05 "Hg15 mi
2:00 AM55 °FClear.6 mph88%30.03 "Hg15 mi
1:00 AM55 °FPassing clouds.6 mph88%30.04 "Hg15 mi
6:00 PM
Sun, Jul 5
77 °FBroken clouds.5 mph39%30.03 "Hg15 mi
5:00 PM79 °FBroken clouds.6 mph34%30.03 "Hg15 mi
4:00 PM79 °FBroken clouds.6 mph39%30.03 "Hg15 mi
3:00 PM77 °FBroken clouds.6 mph36%30.03 "Hg15 mi
2:00 PM79 °FScattered clouds.9 mph34%30.05 "Hg15 mi
1:00 PM77 °FScattered clouds.9 mph34%30.05 "Hg15 mi
12:00 PM77 °FScattered clouds.5 mph47%30.06 "Hg15 mi
Weather by CustomWeather, © 2015

See weather overviewHow to use our weather pages